AirNav   Air Wisconsin pilot careers
 
 1619 users online  

JLA Quartz Creek Airport
Cooper Landing, Alaska, USA

GOING TO COOPER LANDING?


FAA INFORMATION EFFECTIVE 19 JULY 2018

Location

FAA Identifier: JLA
Lat/Long: 60-29-03.3500N / 149-43-22.4400W
60-29.055833N / 149-43.374000W
60.4842639 / -149.7229000
(estimated)
Elevation: 466 ft. / 142 m (estimated)
Variation: 25E (1985)
From city: 3 miles W of COOPER LANDING, AK
Time zone: UTC -8 (UTC -9 during Standard Time)
Zip code: 99572

Airport Operations

Airport use: Open to the public
Control tower: no
ARTCC: ANCHORAGE CENTER
FSS: KENAI FLIGHT SERVICE STATION [907-283-8469]
NOTAMs facility: ENA (NOTAM-D service available)
Attendance: UNATNDD
Wind indicator: yes, WINDSOCK IS BELOW TREELINE AND MAY BE UNRELIABLE.
Segmented circle: no

Airport Communications

CTAF: 122.9

Nearby radio navigation aids

NDB name  Hdg/Dist  Freq  Var  ID
SOLDOTNA070/34.234619EOLT --- .-.. -

Airport Services

Parking: tiedowns
Airframe service: NONE
Powerplant service: NONE
Bottled oxygen: NONE
Bulk oxygen: NONE

Runway Information

Runway 4/22

Dimensions: 2200 x 60 ft. / 671 x 18 m
Surface: gravel/dirt, in good condition
Runway edge markings: RY 04/22 MARKED WITH REFLECTIVE THLD PANELS.
Gradient: NORTHEAST
RUNWAY 4  RUNWAY 22
Latitude: 60-28.956500N60-29.155167N
Longitude: 149-43.679333W149-43.068667W
Elevation: 459.0 ft.466.0 ft.
Gradient: 0.3% UP0.1%
Traffic pattern: leftleft
Runway heading: 032 magnetic, 057 true212 magnetic, 237 true
Obstructions: 46 ft. trees, 369 ft. from runway, 126 ft. left of centerline, 7:1 slope to clear
MTN LCTD 2 SM FM APCH END.
65 ft. trees, 450 ft. from runway, 154 ft. left of centerline, 8:1 slope to clear

Airport Ownership and Management from official FAA records

Ownership: Publicly-owned
Owner: ALASKA DOT&PF CENTRAL REGION
P O BOX 196900
ANCHORAGE, AK 99519-6900
Phone 907-269-0770
Manager: SEAN MONTGOMERY/CARL HIGH
STATE OF ALASKA - DOTPF, P.O. BOX 1327
SOLDOTNA, AK 99669
Phone 907-262-2199

Airport Operational Statistics

Aircraft based on the field: 3
Single engine airplanes: 3
    
Aircraft operations: avg 38/month *
89% transient general aviation
11% local general aviation
* for 12-month period ending 31 December 2013

Additional Remarks

RY 04/22 EDGES NOT MKD.
STATE MAINTENANCE ON IRREGULAR BASIS, RCMD VISUAL INSPECTION PRIOR TO LANDING.
WX CAMERA AVBL ON INTERNET AT HTTP://AVCAMS.FAA.GOV

Instrument Procedures

There are no published instrument procedures at JLA.

Some nearby airports with instrument procedures:

PAWD - Seward Airport (23 nm SE)
PASX - Soldotna Airport (39 nm W)
PANC - Ted Stevens Anchorage International Airport (42 nm N)
PAMR - Merrill Field Airport (44 nm N)
PAEN - Kenai Municipal Airport (45 nm W)
 
Loc | Ops | Rwys | IFR | FBO | Links
Com | Nav | Svcs | Stats | Notes

Crowley
 
Area around JLA (Quartz Creek Airport)
 
Road maps at: MapQuest Bing Google
 
Aerial photo
WARNING: Photo may not be current or correct
Aerial photo of JLA (Quartz Creek Airport)
Do you have a better or more recent aerial photo of Quartz Creek Airport that you would like to share? If so, please send us your photo.

 
Sectional chart

 
Airport distance calculator
Flying to Quartz Creek Airport? Find the distance to fly.

From to JLA

Sunrise and sunset
Times for 19-Jul-2018
 Local
(UTC-8)
 Zulu
(UTC)
Morning civil twilight03:5111:51
Sunrise05:0813:08
Sunset23:0207:02
Evening civil twilight00:1908:19

Current date and time
Zulu (UTC)  19-Jul-2018 18:17:45
Local (UTC-8)  19-Jul-2018 10:17:45
 
METAR
PAWD 
24nm S 
191753Z AUTO 00000KT 10SM OVC012 13/11 A3029 RMK AO2 SLP256 T01280111 10128 20078 51005 TSNO
PATO 
31nm NE 
191753Z AUTO VRB04KT 10SM CLR 14/08 A3027 RMK AO2 SLP249 T01440078 10144 20044 58000 TSNO
PASX 
39nm W 
191756Z AUTO 29005KT 10SM CLR 14/09 A3030 RMK AO2 SLP270 T01440094 10144 20050 51005
PANC 
42nm N 
191753Z 21005KT 10SM FEW090 FEW200 17/09 A3026 RMK AO2 SLP249 T01670089 10167 20100 50003
PALH 
43nm N 
191753Z VRB04KT 10SM CLR 17/09 A3027 RMK AO2 SLP251 T01720089 10172 20100 50003
PAMR 
44nm N 
191753Z 30006KT 10SM CLR 17/11 A3026 RMK AO2 SLP248 T01670106 10172 20094 50003
PAEN 
45nm W 
191753Z 23009KT 10SM FEW007 13/09 A3029 RMK AO2 SLP258 MIFG W OVR INLET T01280089 10128 20089 53008
PAED 
46nm N 
191656Z 25006KT 10SM FEW090 15/08 A3026 RMK AO2A SLP242 T01520084
PAFR 
47nm N 
191758Z AUTO 00000KT 7SM CLR 16/07 A3024 RMK AO2 SLP246 T01610068 10162 20067 50001
TAF
PANC 
42nm N 
191737Z 1918/2024 29007KT P6SM SCT200 FM200600 VRB03KT P6SM SCT200 FM202100 29008KT P6SM SCT200
PAEN 
45nm W 
191737Z 1918/2018 21010KT P6SM SCT006 FM200000 22016KT P6SM FEW200 FM200900 20006KT P6SM SCT200 FM201200 20005KT P6SM MIFG SCT005
PAED 
46nm N 
191100Z 1911/2017 VRB06KT 9999 FEW050 FEW200 WND 23009KT AFT 1919 QNH3020INS BECMG 2008/2009 VRB06KT 9999 SCT030 QNH3021INS TX20/2000Z TN09/1914Z
NOTAMs
Click for the latest NOTAMs
NOTAMs are issued by the DoD/FAA and will open in a separate window not controlled by AirNav.

 

 
 

Would you like to see your business listed on this page?

 If your business provides an interesting product or service to pilots, flight crews, aircraft, or users of the Quartz Creek Airport, you should consider listing it here.  To start the listing process, click on the button below
 
Add a business
 

Other Pages about Quartz Creek Airport

Update a link
 
Copyright © AirNav, LLC. All rights reserved. Privacy Policy  Contact